Estación Meteorológica Peña el Pijo (Robertgarden) [ 07/11/20 22:12:27 CEST ]

Fecha Hora Presion(HPa) Temp (°C) Humedad % Rocio (°C) Viento ( m/s) Direccion Lluvia 1Hora(mm) Lluvia 24H(mm) LLuvia Total(mm)
2020-Mar-16 01:09:17 1002.700 - - - - N     39.88
2020-Mar-16 02:11:00 1002.200 - - - - N     39.88
2020-Mar-16 03:09:36 1001.400 - - - - N     39.88
2020-Mar-16 04:10:59 1000.500 - - - - N     39.88
2020-Mar-16 05:10:46 999.900 - - - - N     39.88
2020-Mar-16 06:08:55 999.500 - - - - N     39.88
2020-Mar-16 07:09:10 999.500 - - - - N     39.88
2020-Mar-16 08:09:11 1000.300 - - - - N     39.88
2020-Mar-16 09:09:04 1001.200 - - - - N     39.88
2020-Mar-16 10:09:04 1002.300 - - - - N     39.88
2020-Mar-16 11:08:58 1001.400 - - - - N     39.88
2020-Mar-16 12:09:32 1001.100 - - - - N     39.88
2020-Mar-16 13:09:11 1000.800 - - - - N     39.88
2020-Mar-16 14:09:04 1000.500 - - - - N     39.88
2020-Mar-16 15:09:30 1000.200 - - - - N     39.88
2020-Mar-16 16:09:42 1000.800 - - - - N     39.88
2020-Mar-16 17:09:22 1000.900 - - - - N     39.88
2020-Mar-16 18:09:47 1001.400 - - - - N     39.88
2020-Mar-16 19:09:27 1002.600 - - - - N     39.88
2020-Mar-16 20:09:16 1003.500 - - - - N     39.88
2020-Mar-16 21:09:06 1004.300 - - - - N     39.88
2020-Mar-16 22:09:10 1004.900 - - - - N     39.88
2020-Mar-16 23:09:22 1005.900 - - - - N     39.88

Temperatura Máxima:    Temperatura Mínima:
Presión Máxima:1005.900 Hpa    Presión Mínima:999.500 Hpa


Volver